Regional Weather Roundup
Issued by NWS

Home | Current Version | Previous Version | Graphics & Text | Print | Product List | Glossary On
Versions: 1 2 3 4 5 6 7 8 9 10 11 12 13 14 15 16 17 18 19 20 21 22 23 24 25 26 27 28 29 30 31 32 33 34 35 36 37 38 39 40 41 42 43 44 45 46 47 48 49 50
000
ASUS43 KMKX 290121
RWRWI

WISCONSIN REGIONAL WEATHER ROUNDUP
NATIONAL WEATHER SERVICE MILWAUKEE/SULLIVAN WI
700 PM CST FRI NOV 28 2014

NOTE: "FAIR" INDICATES FEW OR NO CLOUDS BELOW 12,000 FEET WITH NO
SIGNIFICANT WEATHER AND/OR OBSTRUCTIONS TO VISIBILITY.

WIZ001-002-006>008-014>016-023>028-290200-
NORTHWEST WISCONSIN

CITY           SKY/WX    TMP DP  RH WIND       PRES   REMARKS
SUPERIOR ARPT  CLOUDY    19  13  79 SE5       29.89F WCI  12
ASHLAND        CLOUDY    18  12  77 E5        29.90F WCI  11
HAYWARD        CLOUDY    17  12  80 SE6       29.85F WCI   9
SIREN          MOCLDY    18  13  80 E3        29.85F
CUMBERLAND     PTCLDY    19  14  79 E6        29.83F WCI  11
RICE LAKE      PTCLDY    19  15  81 E6        29.87S WCI  11
CHETEK         PTCLDY    18  14  84 CALM      29.86S
LADYSMITH      CLOUDY    18  14  84 E3        29.88S
EAU CLAIRE     CLOUDY    23  16  74 E7        29.85F WCI  15
MENOMONIE      MOCLDY    24  17  77 NE6       29.86R WCI  16
NEW RICHMOND   PTCLDY    20  14  79 E7        29.83F WCI  11
OSCEOLA        CLOUDY    21  17  83 E7        29.86F WCI  13
$$

WIZ003>005-009-010-017-018-290200-
NORTH CENTRAL WISCONSIN

CITY           SKY/WX    TMP DP  RH WIND       PRES   REMARKS
MANITOWISH WTR CLOUDY    13  11  91 SE3       29.86R
ARBOR VITAE    CLOUDY    17  13  87 SE3       29.85S
WOODRUFF       CLOUDY    17  13  87 SE3       29.85S
RHINELANDER    CLOUDY    14  10  84 SE7       29.86F WCI   4
EAGLE RIVER    MOCLDY    12   9  85 CALM      29.86F
LAND O LAKES   CLOUDY    14  11  87 SE3       29.87S
PHILLIPS       CLOUDY    15  11  85 SE5       29.86R WCI   8
TOMAHAWK       CLOUDY    15  12  88 CALM      29.87F
MEDFORD        FLURRIES  17  14  87 SE6       29.83F WCI   9
MERRILL        MOCLDY    16  13  88 SE5       29.87F WCI   9
$$

WIZ029-030-035-036-043>047-290200-
CENTRAL WISCONSIN

CITY           SKY/WX    TMP DP  RH WIND       PRES   REMARKS
WAUSAU         MOCLDY    18  14  84 E8        29.86F WCI   8
MOSINEE        FLURRIES  18  18 100 SE6       29.88F WCI   9
MARSHFIELD     CLOUDY    21  16  81 SE9       29.86F WCI  11
STEVENS POINT  MOCLDY    18  15  88 E3        29.90S
WAUPACA        CLOUDY    25  20  81 CALM      29.92F
WAUTOMA        MOCLDY    24  20  85 CALM      29.91F
WISC RAPIDS    MOCLDY    22  16  78 SE7       29.89F WCI  13
CAMP DOUGLAS   MOCLDY    24  24  99 E6        29.88S WCI  17
$$

WIZ011>013-019>022-031-037>040-048>050-290200-
NORTHEAST WISCONSIN

CITY           SKY/WX    TMP DP  RH WIND       PRES   REMARKS
ANTIGO         CLOUDY    15  13  92 SE6       29.87F WCI   6
SHAWANO        CLOUDY    22  19  88 NE3       29.93F
OCONTO         CLOUDY    21  21  98 CALM      29.94F
STURGEON BAY   CLOUDY    25  21  86 SW8       29.93F WCI  16
GREEN BAY      LGT SNOW  25  23  92 S3        29.95S FOG
MANITOWOC      FLURRIES  29  25  85 S8        29.94F WCI  21
APPLETON       CLOUDY    25  19  80 VRB5      29.93F WCI  19
CLINTONVILLE   CLOUDY    21  19  93 CALM      29.92F
OSHKOSH        CLOUDY    26  19  74 MISG      29.92F
$$

WIZ032>034-041-042-053>061-290200-
SOUTHWEST WISCONSIN

CITY           SKY/WX    TMP DP  RH WIND       PRES   REMARKS
LA CROSSE      FAIR      28  19  69 SE8       29.87F WCI  20
SPARTA         MOCLDY    25  21  83 SE5       29.89F WCI  19
VIROQUA        FAIR      24  20  87 E6        29.84F WCI  16
BOSCOBEL       MOCLDY    26  20  77 CALM      29.89F
PRAIRIE DU CHI MOCLDY    28  22  76 SE5       29.87F WCI  23
PLATTEVILLE    MOCLDY    28  25  89 CALM      29.87S
$$

WIZ056-057-062-063-064-067-068-290200-
SOUTH CENTRAL WISCONSIN

CITY           SKY/WX    TMP DP  RH WIND       PRES   REMARKS
REEDSBURG      CLOUDY    25  22  88 E3        29.87F
BARABOO/DELLS  CLOUDY    25  22  88 SE3       29.87F
LONE ROCK      MOCLDY    29  20  69 E6        29.90F WCI  23
MINERAL POINT  MOCLDY    28  27  93 SE6       29.86S WCI  22
MADISON        CLOUDY    27  22  81 CALM      29.92R
MIDDLETON      CLOUDY    29  24  82 E3        29.90S
WATERTOWN      CLOUDY    28  25  91 SE3       29.91R
MONROE         CLOUDY    30  30 100 S8        29.87F WCI  23
JANESVILLE     MOCLDY    34  28  80 S8        29.90F WCI  27
$$

WIZ051-052-058>065-066-070>072-290200-
SOUTHEAST WISCONSIN

CITY           SKY/WX    TMP DP  RH WIND       PRES   REMARKS
MILWAUKEE      FRZ RAIN  31  24  75 S12       29.93F WCI  22
WAUKESHA       CLOUDY    27  21  80 SE12      29.98S WCI  16
MILWAUKEE/TIMM CLOUDY    30  23  74 S9        29.95R WCI  22
RACINE         MIX PCPN  33  26  75 S13G20    29.96S WCI  24
BURLINGTON     CLOUDY    29  25  86 SE3       29.93R
KENOSHA        MIX PCPN  32  25  75 S9        29.94R WCI  24
FOND DU LAC    CLOUDY    27  19  72 S6        29.93R WCI  20
SHEBOYGAN      CLOUDY    28  22  78 S5        29.94F WCI  23
WEST BEND      FLURRIES  28  21  74 SE5       29.93R WCI  23
JUNEAU         MIX PCPN  27  24  86 SE8       29.91F WCI  19
$$

LSZ147-162-290200-
LAKE SUPERIOR

STATION/POSITION TIME  TEMP    WIND        PRES    WAVE
                       AIR SEA DIR/SP/G            HT/PER
                 (UTC) (F)     (DEG/KT/KT) (MB)    (FT/S)
DEVILS ISLAND    0100   22     140/  8/ 10 1013.7F
PORT WING        0000   18     120/  3/  4 1013.5
SAXON HARBOR     0000   19      CALM  /  1 1013.5
$$

LMZ867-665-643>646-290200-
LAKE MICHIGAN

STATION/POSITION TIME  TEMP    WIND        PRES    WAVE
                       AIR SEA DIR/SP/G            HT/PER
                 (UTC) (F)     (DEG/KT/KT) (MB)    (FT/S)
CHAMBERS ISLAND  0000   27      80/  5/  7 1014.6F
N MID LAKE BUOY  0050   31 42  170/ 19/ 23 1015.6F   4/ 5
NORTHPORT PIER   0021   31     150/ 10/ 22 1014.2F
SISTER BAY       0013          120/  7/  8   N/A
KEWAUNEE LAKESHO 0100   27     250/  6/  9 1013.3F
SHEBOYGAN LAKESH 0100   33 35  190/ 14/ 18 1015.1F
PORT WASHINGTON  0100   32     240/  7/ 17 1015.6R
MILWAUKEE LAKESH 0100   32     180/ 12/ 14   N/A
S MID LAKE BUOY  0050   35 42  180/ 23/ 27 1015.5F   6/ 6
KENOSHA   LAKESH 0100   34     180/ 13/ 21 1013.9F
$$

TC  - TEMPERATURE IN CELSIUS
VSB - VISIBILITY IN STATUTE MILES
WCI - WIND CHILL INDEX
HX  - HEAT INDEX




USA.gov is the U.S. government's official web portal to all federal, state and local government web resources and services.